Location: *
(51.0460°N, 16.1971°E)
Time: 18:44:38
(UTC+00:00)

Daily predictions for brighter satellites

Satellite Brightness Start Highest point End
(mag) Time Altitude Azimuth Time Altitude Azimuth Time Altitude Azimuth
STARLINK-1229 3.2 18:01:53 10° W 18:04:59 63° N 18:08:05 10° ENE
STARLINK-1246 3.7 18:00:51 10° WSW 18:05:00 85° NNW 18:09:10 10° ENE
Cosmos 1603 4.5 18:00:22 10° SSE 18:05:07 29° ESE 18:09:53 10° NE
STARLINK-1271 3.2 18:02:21 10° W 18:05:27 63° N 18:08:34 10° ENE
STARLINK-1270 3.2 18:02:49 10° W 18:05:55 63° N 18:09:01 10° ENE
STARLINK-1154 3.2 18:03:15 10° W 18:06:21 63° N 18:09:27 10° ENE
STARLINK-1197 3.2 18:04:10 10° W 18:07:15 63° N 18:10:21 10° ENE
Meteor 2-15 4.5 18:01:45 10° S 18:07:41 62° E 18:13:40 10° NNE
STARLINK-1189 3.2 18:04:37 10° W 18:07:43 62° N 18:10:50 10° ENE
STARLINK-1198 3.2 18:05:03 10° W 18:08:10 62° N 18:11:16 10° ENE
STARLINK-1188 3.2 18:05:31 10° W 18:08:37 62° N 18:11:43 10° ENE
Cosmos 2237 Rocket 3.6 18:03:53 10° WSW 18:09:13 43° NW 18:14:37 10° NNE
STARLINK-1235 3.3 18:06:11 10° W 18:09:18 59° N 18:12:26 10° ENE
STARLINK-1187 3.3 18:06:26 10° W 18:09:35 61° N 18:12:44 10° ENE
STARLINK-1224 3.7 18:05:53 10° WSW 18:10:02 83° NNW 18:14:12 10° ENE
STARLINK-1199 3.3 18:07:27 10° W 18:10:34 62° N 18:13:43 10° ENE
STARLINK-1201 3.3 18:07:39 10° W 18:10:53 64° N 18:14:09 10° ENE
STARLINK-1191 3.3 18:07:55 10° W 18:11:02 62° N 18:14:09 10° ENE
Cosmos 2184 Rocket 4.4 18:05:18 10° N 18:11:23 46° ENE 18:17:21 10° SE
STARLINK-1210 3.3 18:08:21 10° W 18:11:28 62° N 18:14:36 10° ENE
H-2A R/B 2.0 18:06:18 10° SSE 18:11:33 77° ENE 18:16:40 10° NNW
STARLINK-1221 3.3 18:08:48 10° W 18:11:56 62° N 18:15:03 10° ENE
IRS-1A Rocket 4.4 18:06:14 10° SSE 18:11:57 86° ENE 18:17:49 10° NNW
STARLINK-1219 3.3 18:09:15 10° W 18:12:23 61° N 18:15:31 10° ENE
STARLINK-1222 3.3 18:09:43 10° W 18:12:50 61° N 18:15:58 10° ENE
STARLINK-1211 3.3 18:10:10 10° W 18:13:17 61° N 18:16:25 10° ENE
STARLINK-1214 3.3 18:10:38 10° W 18:13:45 61° N 18:16:52 10° ENE
Cosmos 1726 3.2 18:10:48 10° SE 18:13:54 25° E 18:17:01 10° NNE
STARLINK-1245 3.3 18:11:06 10° W 18:14:12 61° N 18:17:18 10° ENE
STARLINK-1234 3.3 18:11:23 10° W 18:14:23 57° N 18:17:24 10° ENE
STARLINK-1238 3.3 18:11:31 10° W 18:14:38 61° N 18:17:46 10° ENE
STARLINK-1225 3.7 18:10:50 10° WSW 18:14:59 80° NNW 18:19:09 10° ENE
STARLINK-1228 3.2 18:12:08 10° W 18:14:59 55° N 18:17:52 10° ENE
STARLINK-1205 3.3 18:12:28 10° W 18:15:34 60° N 18:18:41 10° ENE
STARLINK-1204 3.3 18:12:55 10° W 18:16:00 60° N 18:19:06 10° ENE
USA 186 1.8 18:13:01 10° SSE 18:16:24 73° ENE 18:19:39 10° N
Resurs 1-3 4.3 18:14:53 10° SE 18:18:52 35° ENE 18:22:54 10° N
STARLINK-1230 3.7 18:15:50 10° W 18:19:59 78° NNW 18:24:09 10° ENE
ATLAS CENTAUR R/B 4.0 18:22:34 10° NNW 18:24:24 12° N 18:26:11 10° NNE
STARLINK-1243 3.8 18:20:48 10° W 18:24:57 76° NNW 18:29:07 10° ENE
STARLINK-1209 3.2 18:22:05 10° W 18:24:59 55° N 18:27:49 11° ENE
Cosmos 292 Rocket 3.9 18:22:29 10° NNW 18:27:18 82° WSW 18:32:07 10° SSE
Cosmos 1461 4.3 18:23:55 10° NNW 18:27:50 29° NNE 18:31:32 12° E
Cosmos 1703 4.1 18:24:30 10° N 18:28:07 33° ENE 18:31:29 11° SE
Cosmos 2251 Rocket 3.7 18:24:24 10° S 18:29:37 54° ESE 18:34:52 10° NNE
STARLINK-1236 3.8 18:25:51 10° W 18:29:59 74° N 18:34:09 10° ENE
NOSS 3-4 (A) 4.1 18:24:11 10° NW 18:30:52 58° NE 18:37:30 13° ESE
NOSS 3-4 (C) 4.1 18:24:17 10° NW 18:30:58 57° NE 18:37:35 13° ESE
ERBS 4.0 18:28:58 10° WNW 18:31:58 29° N 18:34:59 10° ENE
Cosmos 1953 2.3 18:28:33 10° S 18:32:27 56° E 18:36:22 10° NNE
MONITOR-E 4.1 18:30:24 10° S 18:33:01 66° WSW 18:35:40 10° NNW
Cosmos 2154 Rocket 4.4 18:27:09 10° N 18:33:13 44° ENE 18:39:15 10° SE
Cosmos 2315 Rocket 4.2 18:29:34 10° SSW 18:35:55 80° WNW 18:42:20 10° N
Resurs 01 Rocket 2.2 18:34:55 12° SE 18:38:37 39° ENE 18:42:45 10° N
Cosmos 2369 Rocket 2.4 18:32:59 10° NNW 18:38:43 75° WSW 18:44:21 10° SSE
FREGAT/IRIS 3.4 18:36:24 10° S 18:39:02 47° W 18:41:43 10° NNW
STARLINK-1269 3.8 18:35:47 10° W 18:39:56 71° N 18:43:57 11° ENE
Cosmos 1626 4.5 18:37:21 10° NNW 18:40:29 26° W 18:43:37 10° SSW
Aureole 3 3.9 18:36:07 10° S 18:40:39 81° E 18:46:34 10° NNE
NOSS 3-3 (A) 4.1 18:36:28 10° SSW 18:42:10 53° ESE 18:48:36 10° NE
NOSS 3-3 (C) 4.1 18:36:34 10° SSW 18:42:16 53° ESE 18:48:42 10° NE
Nadezhda 1 Rocket 4.4 18:37:29 10° SSE 18:43:26 42° E 18:49:22 10° NNE
Cosmos 2058 Rocket 4.3 18:41:07 15° SE 18:43:40 23° E 18:47:14 10° NE
Cosmos 1943 Rocket 2.9 18:39:17 10° NW 18:44:40 53° WSW 18:50:03 10° S
IRIDIUM 104 4.3 18:39:24 10° N 18:44:41 86° E 18:49:54 10° S
ADEOS Rocket 4.4 18:38:33 10° N 18:44:52 44° WNW 18:50:34 10° SW
Cosmos 1437 2.5 18:41:50 10° N 18:44:52 74° ENE 18:47:33 13° SSE
STARLINK-1200 3.8 18:40:46 10° W 18:44:55 70° N 18:48:43 12° ENE
SL-8 R/B 4.5 18:41:56 10° W 18:46:25 41° SSW 18:49:51 16° SE
CZ-2C R/B 3.9 18:42:37 10° NNE 18:47:18 55° E 18:51:53 10° S
STARLINK-1192 3.9 18:45:46 10° W 18:49:55 69° N 18:53:31 13° ENE
Cosmos 1470 4.1 18:49:21 10° SSW 18:53:04 43° WNW 18:56:50 10° N
IRIDIUM 114 4.4 18:48:35 10° N 18:53:50 81° W 18:59:03 10° S
Cosmos 2263 4.3 18:48:26 10° NNW 18:54:03 77° WSW 18:59:32 11° SSE
STARLINK-1244 3.9 18:50:45 10° W 18:54:53 68° N 18:58:17 15° ENE
Cosmos 1908 3.7 18:52:23 13° SSE 18:55:30 38° E 18:59:08 10° NNE
Ariane Rocket 4.3 18:51:59 10° SSW 18:56:45 40° W 19:01:32 10° NNW
Aureole 2 Rocket 4.2 18:56:16 10° NW 18:59:25 31° WSW 19:02:29 10° S
STARLINK-1138 3.9 18:55:45 10° W 18:59:53 67° N 19:03:05 16° ENE
Abrixas rocket 2.3 18:57:34 10° WSW 19:00:26 46° S 19:01:18 33° ESE
Cosmos 2074 Rocket 4.1 18:54:13 10° N 19:00:31 85° W 19:06:49 10° S
STARLINK-67 2.6 18:58:32 10° WNW 19:01:06 62° NNE 19:01:57 35° ENE
SPOT 5 4.4 19:00:07 14° ENE 19:01:26 16° ENE 19:04:06 10° NNE
Cosmos 1726 Rocket 3.8 18:58:03 10° SSE 19:02:17 49° E 19:06:35 10° NNE
ATLAS 2AS CENTAUR R/B 2.9 18:55:47 10° NW 19:03:34 80° NE 19:08:47 20° SE
STARLINK-1143 3.9 19:00:41 10° W 19:04:49 66° N 19:07:49 18° ENE
Cosmos 1943 3.2 18:59:38 10° SSW 19:05:12 63° ESE 19:10:50 10° NE
USA 234 3.6 18:59:11 10° ENE 19:05:16 40° SE 19:11:20 10° SSW
ISS -1.5 19:03:04 10° W 19:05:27 18° SW 19:07:16 13° S
Cosmos 1825 Rocket 3.6 19:01:03 10° NNW 19:05:29 79° W 19:09:52 10° S
Aureole 1 Rocket 4.5 19:00:57 10° S 19:08:10 45° ESE 19:14:01 10° NE
SL-08 RB Rocket 4.4 19:04:32 10° S 19:08:59 54° W 19:13:31 10° NNW
Spot 2 Rocket 3.9 19:06:11 22° SE 19:09:05 45° ENE 19:13:56 10° N
STARLINK-1241 3.9 19:05:44 10° W 19:09:52 66° N 19:12:39 20° ENE
Meteor 2-17 Rocket 4.4 19:05:44 10° N 19:11:54 76° ENE 19:17:20 14° SSE
Cosmos 1140 Rocket 4.3 19:11:31 25° SE 19:12:56 28° E 19:17:19 10° NE
SPOT 3 Rocket 3.9 19:07:53 10° S 19:13:04 65° WSW 19:18:16 10° NNW
STARLINK-1239 3.9 19:10:44 10° W 19:14:52 65° N 19:17:26 22° ENE
Cosmos 1610 Rocket 4.4 19:09:44 10° N 19:16:00 85° E 19:21:46 12° S
Iridium 4 Rocket 4.5 19:13:27 10° NNE 19:16:42 20° ENE 19:16:55 20° ENE
Cosmos 1758 Rocket 4.3 19:12:59 10° NNW 19:17:13 51° W 19:21:23 10° S
MetOp-B 4.2 19:15:54 23° SE 19:19:11 62° ENE 19:24:30 10° N
STARLINK-1240 3.9 19:15:43 10° W 19:19:51 65° N 19:22:12 24° ENE
MOS 1 Rocket 3.5 19:16:34 10° NNE 19:21:52 75° ESE 19:27:19 10° S
Cosmos 1953 Rocket 3.7 19:20:01 10° NNW 19:24:29 74° W 19:27:52 17° S
STARLINK-1216 3.9 19:20:43 10° W 19:24:51 65° N 19:27:00 27° ENE
CZ-4C R/B 4.1 19:19:53 10° NW 19:25:22 30° NNE 19:31:43 10° ENE
SL-16 R/B 4.1 19:21:55 10° WSW 19:26:58 32° NW 19:32:03 10° NNE
Terra 3.2 19:28:43 22° ENE 19:29:43 23° ENE 19:33:27 10° N
STARLINK-1237 3.9 19:25:43 10° W 19:29:51 65° N 19:31:47 30° ENE
Cosmos 1606 Rocket 3.7 19:25:59 10° SSW 19:30:24 74° WNW 19:34:54 10° N
Cosmos 1818 3.5 19:25:07 10° SSW 19:30:29 65° SE 19:35:55 10° NE
Cosmos 921 Rocket 3.0 19:27:33 10° NNW 19:31:43 59° ENE 19:32:50 42° ESE
CZ-2C R/B 2.5 19:28:41 10° NNE 19:33:54 86° ESE 19:39:05 10° SSW
BREEZE M DEB (TANK) 3.8 19:26:26 10° SW 19:34:00 37° SSE 19:34:30 36° SE
STARLINK-1233 3.0 19:31:05 10° WNW 19:34:14 66° N 19:34:36 58° NE
Cosmos 614 Rocket 3.9 19:29:14 10° S 19:34:23 64° ESE 19:39:34 10° NNE
STARLINK-1212 3.0 19:31:34 10° WNW 19:34:41 66° NNE 19:35:02 59° NE
STARLINK-1202 3.9 19:30:42 10° W 19:34:50 66° N 19:36:33 33° ENE
STARLINK-1105 3.0 19:32:00 10° WNW 19:35:09 67° N 19:35:29 60° NE
Cosmos 407 Rocket 3.5 19:30:25 10° S 19:35:26 55° ESE 19:40:27 10° NNE
STARLINK-1206 3.0 19:32:29 10° WNW 19:35:35 67° N 19:35:53 61° NE
STARLINK-1247 3.0 19:32:56 10° WNW 19:36:03 67° NNE 19:36:19 62° NE
STARLINK-1203 3.8 19:32:03 10° W 19:36:10 66° N 19:37:45 35° ENE
STARLINK-1227 3.0 19:33:20 10° WNW 19:36:28 67° N 19:36:45 62° NE
Cosmos 2228 3.3 19:32:13 10° SSW 19:36:29 68° WNW 19:40:49 10° N
Cosmos 1656 Rocket 4.2 19:30:56 10° NW 19:36:30 56° WSW 19:40:14 20° S
STARLINK-1218 2.9 19:33:50 10° WNW 19:36:58 67° N 19:37:11 63° NE
STARLINK-1226 2.9 19:34:16 10° WNW 19:37:23 67° N 19:37:37 64° NE
STARLINK-1254 3.0 19:34:41 10° WNW 19:37:50 68° N 19:38:04 64° NE
SPOT 1/Viking Rocket 3.8 19:36:24 35° ESE 19:38:17 52° ENE 19:43:23 10° N
STARLINK-1215 2.9 19:35:12 10° WNW 19:38:18 68° N 19:38:29 65° NE
STARLINK-1231 2.9 19:35:39 10° WNW 19:38:47 68° NNE 19:38:56 66° NE
STARLINK-1232 2.9 19:36:33 10° WNW 19:39:40 68° N 19:39:47 67° NNE
STARLINK-1217 2.9 19:36:59 10° WNW 19:40:07 69° NNE 19:40:14 68° NNE
IGS 5A 3.6 19:39:45 46° ESE 19:40:30 53° ENE 19:44:35 10° N
STARLINK-1208 2.9 19:37:24 10° WNW 19:40:32 69° N 19:40:40 68° NNE
STARLINK-1229 2.9 19:37:53 10° WNW 19:41:00 69° NNE 19:41:04 68° NNE
STARLINK-1271 2.9 19:38:20 10° WNW 19:41:28 69° NNE 19:41:32 69° NNE
SAR-Lupe-2 3.4 19:38:16 10° NNE 19:41:52 68° ESE 19:42:09 64° SE
STARLINK-1270 2.9 19:38:48 10° WNW 19:41:55 69° NNE 19:41:57 69° NNE
STARLINK-1154 2.9 19:39:14 10° WNW 19:42:22 70° NNE 19:42:23 70° NNE
STARLINK-1197 2.9 19:40:08 10° WNW 19:43:15 70° N 19:43:15 70° N
STARLINK-1189 3.0 19:40:36 10° WNW 19:43:42 70° N 19:43:42 70° N
STARLINK-1198 3.0 19:41:03 10° WNW 19:44:07 70° N 19:44:07 70° N
STARLINK-1188 3.0 19:41:30 10° WNW 19:44:33 70° N 19:44:33 70° N
STARLINK-1246 3.8 19:40:39 10° W 19:44:47 67° N 19:46:06 41° ENE
Cosmos 2341 Rocket 4.0 19:38:39 10° N 19:45:04 79° E 19:48:37 29° SSE
STARLINK-1235 2.9 19:42:08 10° WNW 19:45:11 76° NNW 19:45:11 76° NNW
STARLINK-1187 3.0 19:42:28 10° WNW 19:45:33 74° N 19:45:33 74° N
BREEZE-M DEB (TANK) 4.1 19:41:10 10° W 19:45:43 33° SW 19:45:58 33° SSW
COSMOS 2455 2.8 19:39:47 10° NW 19:45:51 75° NE 19:48:18 38° SE
SL-4 R/B 4.1 19:43:29 10° SW 19:43:45 12° SSW 19:43:45 12° SSW
STARLINK-1199 3.0 19:43:25 10° WNW 19:46:28 71° N 19:46:28 71° N
STARLINK-1191 3.0 19:43:54 10° WNW 19:46:54 70° NNW 19:46:54 70° NNW
STARLINK-1201 3.0 19:44:04 10° WNW 19:47:21 72° NNE 19:47:21 72° NNE
STARLINK-1210 3.0 19:44:20 10° WNW 19:47:20 70° NNW 19:47:20 70° NNW
STARLINK-1221 3.0 19:44:47 10° WNW 19:47:46 70° NNW 19:47:46 70° NNW
STARLINK-1219 3.1 19:45:14 10° WNW 19:48:12 70° NNW 19:48:12 70° NNW
STARLINK-1222 3.1 19:45:41 10° WNW 19:48:38 69° NNW 19:48:38 69° NNW
Cosmos 1603 4.3 19:43:24 10° SW 19:48:56 57° NW 19:54:29 10° NNE
Cosmos 1980 Rocket 4.3 19:45:29 10° N 19:49:02 17° NNE 19:52:06 11° ENE
Cosmos 1726 4.1 19:45:44 10° SW 19:49:02 29° WNW 19:52:22 10° N
ERS-1 Rocket 3.3 19:47:59 41° ESE 19:49:12 50° ENE 19:54:04 10° N
Cosmos 1340 Rocket 2.7 19:47:46 38° S 19:49:16 86° E 19:53:20 10° NNE
STARLINK-1211 3.1 19:46:09 10° WNW 19:49:04 68° NNW 19:49:04 68° NNW
STARLINK-1214 3.1 19:46:36 10° WNW 19:49:31 68° NNW 19:49:31 68° NNW
STARLINK-1224 3.8 19:45:42 10° WNW 19:49:50 67° N 19:50:56 45° ENE
STARLINK-1234 3.2 19:47:02 10° WNW 19:49:39 62° WNW 19:49:39 62° WNW
STARLINK-1228 3.4 19:47:11 10° WNW 19:49:30 53° WNW 19:49:30 53° WNW
STARLINK-1245 3.1 19:47:04 10° WNW 19:49:55 66° NW 19:49:55 66° NW
STARLINK-1238 3.1 19:47:29 10° WNW 19:50:23 67° NNW 19:50:23 67° NNW
STARLINK-1205 3.2 19:48:26 10° WNW 19:51:14 64° NW 19:51:14 64° NW
STARLINK-1204 3.2 19:48:53 10° WNW 19:51:39 64° NW 19:51:39 64° NW
STARLINK-1225 3.8 19:50:39 10° WNW 19:54:47 68° N 19:55:40 51° ENE
Cosmos 220 Rocket 4.5 19:53:03 10° NNW 19:57:12 44° ENE 19:57:26 43° ENE
Cosmos 1892 3.8 19:53:52 10° N 19:56:50 32° NE 19:56:50 32° NE
Cosmos 1954 Rocket 4.3 19:57:46 43° E 19:57:46 43° E 20:02:30 10° NE
STARLINK-1230 3.7 19:55:39 10° WNW 19:59:47 69° N 20:00:28 56° ENE
STARLINK-1209 4.0 19:57:24 10° WNW 19:59:26 40° WNW 19:59:26 40° WNW
STARLINK-1243 3.7 20:00:37 10° WNW 20:04:46 70° N 20:05:14 63° NE
ATLAS CENTAUR R/B 3.5 20:02:11 10° NNW 20:04:53 17° NNE 20:06:08 15° NE
Cosmos 2218 Rocket 3.9 19:59:38 10° N 20:05:50 71° ENE 20:07:52 44° SSE
Cosmos 1461 3.2 20:02:48 10° NW 20:07:17 67° SW 20:07:55 58° S
Cosmos 1656 4.4 20:02:15 10° NNW 20:07:37 40° NE 20:08:58 35° E
ERBS 3.4 20:05:38 10° NW 20:08:37 40° N 20:08:37 40° N
Cosmos 1408 4.4 20:05:46 10° NNE 20:07:36 21° NE 20:07:36 21° NE
STARLINK-1236 3.6 20:05:39 10° WNW 20:09:48 72° N 20:10:04 69° NE
Cosmos 1076 Rocket 3.5 20:07:05 10° N 20:11:09 63° ENE 20:11:09 63° ENE
Cosmos 1023 Rocket 4.3 20:11:24 32° SSW 20:13:50 85° ESE 20:19:01 10° NNE
Resurs 01 Rocket 3.4 20:12:28 15° SW 20:15:14 27° W 20:19:02 10° NW
Cosmos 2151 4.2 20:11:42 10° N 20:14:38 29° NE 20:14:38 29° NE
ATLAS 5 CENTAUR R/B 3.7 20:20:51 16° NE 20:20:51 16° NE 20:21:57 10° NE
Cosmos 1825 4.1 20:15:23 10° NNE 20:17:15 20° NE 20:17:15 20° NE
In-Cosmos 22 Rocket 4.2 20:12:53 10° NNW 20:18:46 84° ENE 20:20:12 54° SSE
STARLINK-1269 3.7 20:15:35 10° WNW 20:19:36 74° NNW 20:19:36 74° NNW
USA 32 4.4 20:14:57 10° N 20:20:03 47° ENE 20:20:05 47° E
Cosmos 2181 Rocket 3.9 20:18:41 39° S 20:21:12 83° E 20:27:26 10° NNE
Cosmos 2058 Rocket 4.1 20:18:19 18° SW 20:21:23 45° WNW 20:25:45 10° N
NOSS 3-4 (A) 4.4 20:15:12 10° NW 20:21:52 49° WSW 20:24:57 32° S
NOSS 3-4 (C) 4.4 20:15:18 10° NW 20:21:59 50° WSW 20:25:03 33° S
Cosmos 1300 3.1 20:23:46 62° NW 20:23:46 62° NW 20:27:14 10° N
STARLINK-1200 3.8 20:20:33 10° WNW 20:24:22 70° NW 20:24:22 70° NW
Landsat 7 4.2 20:24:18 48° SSW 20:25:17 59° W 20:30:01 10° NNW
Meteor 2-1 Rocket 4.3 20:25:44 57° ESE 20:26:07 58° E 20:31:56 10° NNE
Cosmos 1763 Rocket 3.6 20:23:23 10° NNW 20:28:33 57° ENE 20:28:47 56° ENE
STARLINK-1192 3.9 20:25:32 10° WNW 20:29:09 65° NW 20:29:09 65° NW
SL-8 Rocket 4.2 20:24:16 10° NNW 20:30:33 70° W 20:32:55 40° SSW
STARLINK-1244 4.1 20:30:31 10° WNW 20:33:56 58° WNW 20:33:56 58° WNW
Cosmos 864 Rocket 4.4 20:28:47 10° NNW 20:35:04 82° W 20:36:40 53° S
Cosmos 1174 4.3 20:32:28 10° NW 20:35:46 60° N 20:35:46 60° N
CARTOSAT-1 3.7 20:36:52 70° WNW 20:36:52 70° WNW 20:40:57 10° NNW
Cosmos 2058 3.3 20:34:23 10° NNW 20:37:54 60° NW 20:37:54 60° NW
SPOT 5 2.7 20:39:20 71° WNW 20:39:20 71° WNW 20:43:23 10° NNW
STARLINK-1138 4.3 20:35:31 10° WNW 20:38:44 52° WNW 20:38:44 52° WNW
SL-24 R/B - RUBIN 2 4.2 20:34:21 10° SW 20:40:06 89° NW 20:46:34 10° NE
Cosmos 2366 rocket 4.0 20:34:47 10° NNW 20:40:55 72° W 20:42:31 50° SSW
STARLINK-1143 4.5 20:40:26 10° WNW 20:43:27 47° WNW 20:43:27 47° WNW
USA 234 3.2 20:42:08 10° ENE 20:48:43 86° NNW 20:55:17 10° WSW
Cosmos 2369 4.2 20:43:43 10° NNW 20:49:09 45° NE 20:49:33 44° ENE
Cosmos 540 Rocket 4.1 20:44:49 10° NNW 20:49:35 45° NE 20:49:35 45° NE
Nadezhda 3 Rocket 4.2 20:52:27 52° E 20:52:27 52° E 20:58:17 10° NNE
ATLAS 2AS CENTAUR R/B 4.0 20:47:29 10° NW 20:53:52 31° WSW 20:56:14 26° SW
Cosmos 1140 Rocket 4.2 20:51:23 22° SW 20:54:29 51° WNW 20:59:33 10° NNE
Iridium 4 Rocket 3.9 20:52:52 10° NNW 20:56:43 44° WNW 20:56:43 44° WNW
Cosmos 1570 Rocket 4.1 20:52:21 10° NNW 20:57:27 67° NE 20:57:27 67° NE
Cosmos 1812 Rocket 4.3 21:00:32 51° NW 21:00:32 51° NW 21:04:11 10° N
Meteor 2-3 Rocket 4.3 20:54:56 10° N 21:00:13 45° ENE 21:00:13 45° ENE
RESURS DK-1 3.7 20:56:51 10° NNW 20:59:42 37° N 20:59:42 37° N
Cosmos 841 Rocket 3.8 20:56:50 10° NNW 21:01:39 59° NE 21:01:39 59° NE
BREEZE M DEB (TANK) 3.8 21:02:08 60° S 21:02:54 65° SSE 21:18:52 10° ENE
Cosmos 1697 Rocket 2.9 21:01:26 10° NNW 21:06:58 59° NE 21:06:58 59° NE
Terra 2.3 21:07:36 55° WNW 21:07:36 55° WNW 21:11:51 10° NNW
Cosmos 468 Rocket 4.3 21:04:53 10° NNW 21:09:34 58° W 21:09:34 58° W
CZ-4C R/B 3.3 21:08:42 10° NW 21:15:21 54° NE 21:17:32 42° E
Mayak 0.6 21:11:32 10° NNE 21:13:23 25° NNE 21:13:23 25° NNE
SL-16 R/B 4.1 21:12:42 10° NNW 21:16:59 21° NE 21:18:42 19° ENE
Meteor 2-10 Rocket 3.9 21:20:36 58° NNE 21:20:36 58° NNE 21:24:55 10° NNE
Cosmos 2239 Rocket 4.3 21:15:44 10° N 21:22:00 88° E 21:22:00 88° E
Cosmos 2344 4.4 21:14:40 10° NW 21:23:35 67° NE 21:28:52 37° ESE
Cosmos 1821 Rocket 3.9 21:17:19 10° NNW 21:23:42 81° W 21:23:55 80° SW
Thor Agena Rocket 4.4 21:21:42 10° NNE 21:25:02 41° NE 21:25:02 41° NE
Cosmos 489 Rocket 4.4 21:20:49 10° NNW 21:26:55 73° WSW 21:26:55 73° WSW
Cosmos 2322 Rocket 4.1 21:24:07 10° NNW 21:28:23 21° NE 21:30:00 19° ENE
COSMOS 2455 4.3 21:26:25 10° NW 21:31:15 26° WSW 21:31:27 26° WSW
Cosmos 2208 Rocket 4.5 21:26:55 10° NNW 21:31:05 57° NW 21:31:05 57° NW
ASTEX 1 4.0 21:33:47 54° NNW 21:33:47 54° NNW 21:37:41 10° N
Cosmos 1980 Rocket 2.7 21:28:51 10° NNW 21:33:52 52° NNE 21:33:52 52° NNE
Cosmos 1934 Rocket 4.0 21:29:38 10° N 21:35:38 78° NE 21:35:38 78° NE
Cosmos 2360 4.5 21:35:20 10° NNW 21:40:17 64° N 21:40:17 64° N
Cosmos 1605 Rocket 4.2 21:36:26 10° N 21:41:55 59° NE 21:41:55 59° NE
ATLAS CENTAUR R/B 3.6 21:40:43 10° NW 21:42:19 22° NNW 21:42:19 22° NNW
Cosmos 2278 4.1 21:47:35 10° NNW 21:52:13 61° NNW 21:52:13 61° NNW
Cosmos 2082 Rocket 3.7 22:02:46 27° NE 22:02:46 27° NE 22:05:31 10° NE
ATLAS 5 CENTAUR R/B 3.2 22:02:16 35° NNW 22:02:16 35° NNW 22:06:49 10° NE
ALOS 2 4.4 22:09:35 30° N 22:09:35 30° N 22:11:51 10° NNW
COSMOS 2406 3.7 22:09:22 56° N 22:09:22 56° N 22:14:01 10° NNE
Cosmos 1833 Rocket 3.5 22:21:36 46° NNE 22:21:36 46° NNE 22:25:29 10° NNE
USA 234 3.8 22:25:08 10° ENE 22:31:29 55° N 22:37:51 10° W
Cosmos 1697 Rocket 4.4 22:45:54 10° NW 22:48:42 23° WNW 22:48:42 23° WNW
Mayak 1.4 22:48:11 10° NNW 22:49:57 15° NW 22:49:57 15° NW
Cosmos 1727 Rocket 4.3 22:59:22 65° NNW 22:59:22 65° NNW 23:04:47 10° N
SL-16 R/B 2.9 22:56:22 10° NNW 23:00:33 49° NNW 23:00:33 49° NNW
Cosmos 1459 Rocket 4.3 22:55:51 10° N 23:01:18 67° N 23:01:18 67° N
Cosmos 1802 Rocket 4.3 22:57:29 10° N 23:02:46 63° NNE 23:02:46 63° NNE
CZ-4C R/B 3.3 22:57:14 10° NW 23:02:43 50° W 23:02:43 50° W
Cosmos 1725 Rocket 4.4 23:03:38 10° N 23:09:17 59° NE 23:09:17 59° NE
Cosmos 2360 Rocket 3.1 23:05:47 10° NNW 23:10:44 44° NE 23:10:44 44° NE
Cosmos 1607 4.5 23:13:57 51° NE 23:13:57 51° NE 23:18:33 10° NE
Cosmos 2333 Rocket 4.1 23:07:47 10° NNW 23:12:27 25° NE 23:15:07 18° ENE
Cosmos 2016 Rocket 4.2 23:06:52 10° N 23:12:25 66° NNE 23:12:25 66° NNE
Cosmos 2322 Rocket 3.0 23:07:43 10° NNW 23:11:48 48° NNW 23:11:48 48° NNW
Cosmos 2100 Rocket 4.4 23:07:52 10° NNW 23:12:54 58° NW 23:12:54 58° NW
Cosmos 1980 Rocket 4.0 23:13:15 10° NW 23:15:38 22° WNW 23:15:38 22° WNW
Cosmos 2123 Rocket 4.5 23:22:26 53° ENE 23:22:26 53° ENE 23:27:35 10° NNE
Resurs 1-4 Rocket 3.9 23:32:34 10° NE 23:36:00 22° E 23:36:00 22° E
Cosmos 2082 Rocket 3.2 23:44:34 39° NW 23:44:34 39° NW 23:49:39 10° NNE
ATLAS 5 CENTAUR R/B 4.3 23:44:34 10° NW 23:48:15 21° N 23:52:21 10° NE
CZ-2D R/B 3.6 23:44:26 10° NE 23:48:41 28° E 23:48:41 28° E
